Regional Weather Roundup
Issued by NWS

Home | Current Version | Previous Version | Graphics & Text | Print | Product List | Glossary On
Versions: 1 2 3 4 5 6 7 8 9 10 11 12 13 14 15 16 17 18 19 20 21 22 23 24 25 26 27 28 29 30 31 32 33 34 35 36 37 38 39 40 41 42 43 44 45 46 47 48 49 50
000
ASUS43 KIND 181259
RWRIN

WEATHER ROUNDUP FOR INDIANA
NATIONAL WEATHER SERVICE INDIANAPOLIS IN
800 AM EST WED JAN 18 2017

NOTE: "FAIR" INDICATES FEW OR NO CLOUDS BELOW 12,000 FEET WITH NO
SIGNIFICANT WEATHER AND/OR OBSTRUCTIONS TO VISIBILITY.

* - STATION DOES NOT REPORT WEATHER SUCH AS PRECIPITATION OR FOG.

+ - STATION NOT QUALITY CONTROLLED BY THE NATIONAL WEATHER SERVICE.
    USE DATA WITH CAUTION...ESPECIALLY DEWPOINT AND RELATIVE
    HUMIDITY OBSERVATIONS.

INZ001>003-010>013-019-020-181400-
NORTHWEST INDIANA

CITY           SKY/WX    TMP DP  RH WIND       PRES   REMARKS
GARY /AIRPORT/ CLOUDY    36  34  93 W9G21     30.13R FOG
MICHIGAN CITY+ CLOUDY    34  34 100 W9        30.13R FOG     WCI  26
MONTICELLO +   CLOUDY    33  32  96 W8        30.15R FOG     WCI  26
VALPARAISO     CLOUDY    36  34  93 W12       30.13R FOG

$$

LMZ046-743>745-181400-
SOUTHERN LAKE MICHIGAN

STATION/POSITION TIME  TEMP    WIND        PRES    WAVE
                       AIR SEA DIR/SP/G            HT
                 (UTC) (F)     (DEG/KT/KT) (MB)    (FT)
BURNS HARBOR     1240   34     270/ 11/ 13 1020.7R

$$

INZ004-005-014>016-021>024-181400-
NORTH CENTRAL INDIANA

CITY           SKY/WX    TMP DP  RH WIND       PRES   REMARKS
ELKHART        DRIZZLE   34  32  93 W8        30.10R FOG     WCI  27
GOSHEN         CLOUDY    34  31  88 W12       30.10R FOG     WCI  25
PERU/GRISSOM   CLOUDY    34  34 100 W15       30.12R WCI  24
SOUTH BEND     CLOUDY    33  33 100 W12       30.11R FOG     WCI  24

$$

INZ006>009-017-018-025>027-181400-
NORTHEAST INDIANA

CITY           SKY/WX    TMP DP  RH WIND       PRES   REMARKS
ANGOLA *+      CLOUDY    34  34 100 W8        30.06R WCI  27
FORT WAYNE     DRIZZLE   35  32  88 W14       30.11R FOG     WCI  26
KENDALLVILLE + CLOUDY    33  33 100 W14G20    30.08S FOG     WCI  23

$$

INZ028-029-035-036-043>045-051>053-181400-
WEST CENTRAL INDIANA

CITY           SKY/WX    TMP DP  RH WIND       PRES   REMARKS
CRAWFORDSVL +  CLOUDY    33  33 100 NW9       30.16R WCI  25
LAFAYETTE      CLOUDY    34  33  96 W8        30.16R WCI  27
TERRE HAUTE    CLOUDY    37  34  89 NW9       30.19R

$$

INZ030>032-037>040-046>048-054>057-064-065-181400-
CENTRAL INDIANA

CITY           SKY/WX    TMP DP  RH WIND       PRES   REMARKS
COLUMBUS       LGT RAIN  37  37 100 W6        30.19R
INDIANAPOLIS   CLOUDY    36  33  89 W16       30.16R
-EAGLE CREEK   CLOUDY    36  32  85 NW12      30.15R
KOKOMO +       CLOUDY    34  33  96 W12       30.15R WCI  25
MT COMFORT *+  CLOUDY    36  34  93 W8        30.16R
SHELBYVILLE    CLOUDY    38  34  85 W12       30.16R

$$

INZ033-034-041-042-049-050-058-059-181400-
EAST CENTRAL INDIANA

CITY           SKY/WX    TMP DP  RH WIND       PRES   REMARKS
MUNCIE         CLOUDY    36  33  89 W10       30.13R

$$

INZ060-061-067>069-081>083-085>088-181400-
SOUTHWEST INDIANA

CITY           SKY/WX    TMP DP  RH WIND       PRES   REMARKS
EVANSVILLE     CLOUDY    41  35  79 VRB3      30.23R
HUNTINGBURG *+ CLOUDY    39  36  87 W6        30.21F

$$

INZ062-063-066-070>080-084-089>092-181400-
SOUTH CENTRAL AND SOUTHEAST INDIANA

CITY           SKY/WX    TMP DP  RH WIND       PRES   REMARKS
BLOOMINGTON    CLOUDY    37  34  89 NW5       30.17R FOG
MADISON *+     CLOUDY    37  36  93 NW3       30.20R
SEYMOUR +      CLOUDY    39  37  93 NW3       30.19R FOG

$$




USA.gov is the U.S. government's official web portal to all federal, state and local government web resources and services.